Henderson, NV

9:56 PM PDT on June 26, 2017 (GMT -0700)
Henderson

Weather History for KHND - March, 2013

Change the Weather History Date:

Saturday, March 2, 2013

  Actual Average (KLAS) Record (KLAS)
Temperature  
Mean Temperature 60 °F -  
Max Temperature 74 °F 64 °F 82 °F (1967)
Min Temperature 45 °F 43 °F 19 °F (1939)
Degree Days  
Heating Degree Days 6    
Growing Degree Days 10 (Base 50)    
Moisture  
Dew Point 27 °F    
Average Humidity 30    
Maximum Humidity 50    
Minimum Humidity 18    
Precipitation  
Precipitation 0.00 in - - ()
Sea Level Pressure  
Sea Level Pressure 30.22 in    
Wind  
Wind Speed 3 mph (SSE)    
Max Wind Speed 12 mph    
Max Gust Speed -    
Visibility 10 miles    
Events      
Averages and records for this station are not official NWS values.
T = Trace of Precipitation, MM = Missing Value Source: NWS Daily Summary

Daily Weather History Graph

Daily Weather History Graph

Search for Another Location

Airport or City:

Trip Planner

Search our weather history database for the weather conditions in past years. The results will help you decide how hot, cold, wet, or windy it might be!

Date:

Astronomy

Mar. 02, 2013 Rise Set
Actual Time 6:08 AM PST 5:36 PM PST
Civil Twilight 5:43 AM PST 6:02 PM PST
Nautical Twilight 5:13 AM PST 6:32 PM PST
Astronomical Twilight 4:43 AM PST 7:01 PM PST
Moon 11:08 PM PST (3/2) 8:51 AM PST (3/2)
Length of Visible Light 12h 19m
Length of Day
11h 27m
Waning Gibbous, 73% of the Moon is Illuminated
Mar 2
Waning Gibbous
Mar 4
Last Quarter
Mar 11
New
Mar 19
First Quarter
Mar 27
Full

Hourly Weather History & Observations

Time (PST) Temp. Windchill Dew Point Humidity Pressure Visibility Wind Dir Wind Speed Gust Speed Precip Events Conditions
12:56 AM 48.9 °F - 25.2 °F 40% 30.34 in 10.0 mi Calm Calm - N/A   Clear
1:56 AM 47.8 °F - 27.1 °F 45% 30.35 in 10.0 mi SSE 6.9 mph - N/A   Clear
2:56 AM 47.8 °F - 27.1 °F 45% 30.33 in 10.0 mi SSE 6.9 mph - N/A   Clear
3:56 AM 45.9 °F - 26.1 °F 46% 30.33 in 10.0 mi Calm Calm - N/A   Clear
4:56 AM 45.0 °F - 27.1 °F 50% 30.34 in 10.0 mi Calm Calm - N/A   Clear
5:56 AM 45.0 °F 41.8 °F 27.1 °F 50% 30.35 in 10.0 mi SSE 5.8 mph - N/A   Clear
6:56 AM 47.8 °F - 28.0 °F 46% 30.36 in 10.0 mi SSE 5.8 mph - N/A   Clear
7:56 AM 55.9 °F - 29.1 °F 36% 30.35 in 10.0 mi Calm Calm - N/A   Clear
9:56 AM 64.9 °F - 28.0 °F 25% 30.33 in 10.0 mi Calm Calm - N/A   Clear
10:56 AM 66.9 °F - 27.1 °F 22% 30.31 in 10.0 mi NE 5.8 mph - N/A   Clear
11:56 AM 68.9 °F - 28.0 °F 22% 30.27 in 10.0 mi Calm Calm - N/A   Clear
12:56 PM 70.9 °F - 27.1 °F 20% 30.22 in 10.0 mi Calm Calm - N/A   Clear
1:56 PM 72.9 °F - 28.0 °F 19% 30.18 in 10.0 mi Variable 5.8 mph - N/A   Clear
2:56 PM 74.8 °F - 28.0 °F 18% 30.15 in 10.0 mi Calm Calm - N/A   Clear
3:56 PM 73.4 °F - 28.4 °F 19% 30.15 in 10.0 mi Calm Calm - N/A   Clear
4:56 PM 72.9 °F - 28.0 °F 19% 30.11 in 10.0 mi Calm Calm - N/A   Clear
5:56 PM 68.9 °F - 28.0 °F 22% 30.10 in 10.0 mi WNW 4.6 mph - N/A   Clear
6:56 PM 65.8 °F - 28.0 °F 24% 30.10 in 10.0 mi Calm Calm - N/A   Clear
7:56 PM 63.0 °F - 28.0 °F 27% 30.09 in 10.0 mi Calm Calm - N/A   Clear
8:56 PM 61.9 °F - 28.0 °F 28% 30.09 in 10.0 mi South 6.9 mph - N/A   Clear
9:56 PM 57.9 °F - 23.0 °F 26% 30.07 in 10.0 mi South 8.1 mph - N/A   Clear
10:56 PM 59.0 °F - 20.1 °F 22% 30.06 in 10.0 mi SE 9.2 mph - N/A   Clear
11:56 PM 57.9 °F - 20.1 °F 23% 30.04 in 10.0 mi SW 11.5 mph - N/A   Clear